Tracking 20241 objects as of 26-Jan-2020
HD Live streaming from Space Station
objects crossing your sky now

FENGYUN 1C DEB

Track FENGYUN 1C DEB now!
10-day predictions


NORAD ID: 36661
Int'l Code: 1999-025DYF
Perigee: 816.8 km
Apogee: 846.6 km
Inclination: 99.0 °
Period: 101.4 minutes
Semi major axis: 7202 km
RCS: 0.0121 m2 (small)
Launch date: May 10, 1999
Source: People's Republic of China (PRC)
Launch site: Taiyaun Space Center, China (TSC)

Note: This is SATELLITE DEBRIS
aabbcc
Your satellite tracking list
Your tracking list is empty




NASA's NSSDC Master Catalog

Two Line Element Set (TLE):
1 36661U 99025DYF 20026.33024601  .00000770  00000-0  38084-3 0  9996
2 36661  98.9639  77.9056 0020746  20.2710  42.9493 14.20236026576075
Source of the keplerian elements: AFSPC